TimeCDT,TemperatureF,Dew PointF,Humidity,Sea Level PressureIn,VisibilityMPH,Wind Direction,Wind SpeedMPH,Gust SpeedMPH,PrecipitationIn,Events,Conditions,WindDirDegrees,DateUTC
12:53 AM,48.0,12.0,24,29.67,10.0,NE,10.4,-,N/A,,Clear,40,2013-04-15 05:53:00
1:53 AM,46.0,12.9,26,29.66,10.0,ENE,8.1,-,N/A,,Clear,60,2013-04-15 06:53:00
2:53 AM,43.0,14.0,31,29.68,10.0,NNE,5.8,-,N/A,,Clear,20,2013-04-15 07:53:00
3:53 AM,41.0,16.0,36,29.68,10.0,North,5.8,-,N/A,,Clear,360,2013-04-15 08:53:00
4:53 AM,41.0,16.0,36,29.69,10.0,NNW,4.6,-,N/A,,Clear,340,2013-04-15 09:53:00
5:53 AM,39.9,18.0,41,29.72,10.0,NW,8.1,-,N/A,,Clear,310,2013-04-15 10:53:00
6:53 AM,37.0,17.1,44,29.73,10.0,NW,4.6,-,N/A,,Clear,320,2013-04-15 11:53:00
7:53 AM,37.9,19.0,47,29.76,10.0,NNW,4.6,-,N/A,,Clear,340,2013-04-15 12:53:00
8:53 AM,45.0,18.0,34,29.77,10.0,North,4.6,-,N/A,,Clear,350,2013-04-15 13:53:00
9:53 AM,51.1,21.0,31,29.76,10.0,East,9.2,-,N/A,,Clear,100,2013-04-15 14:53:00
10:53 AM,55.9,16.0,21,29.75,10.0,East,17.3,24.2,N/A,,Clear,100,2013-04-15 15:53:00
11:53 AM,59.0,17.1,20,29.73,10.0,East,15.0,25.3,N/A,,Clear,100,2013-04-15 16:53:00
12:53 PM,60.1,21.0,22,29.71,10.0,East,16.1,21.9,N/A,,Clear,100,2013-04-15 17:53:00
1:53 PM,64.0,27.0,25,29.69,10.0,ESE,16.1,20.7,N/A,,Clear,110,2013-04-15 18:53:00
2:53 PM,66.9,30.9,26,29.66,10.0,SE,15.0,23.0,N/A,,Clear,140,2013-04-15 19:53:00
3:53 PM,69.1,32.0,25,29.63,10.0,SE,17.3,21.9,N/A,,Clear,140,2013-04-15 20:53:00
4:53 PM,70.0,32.0,25,29.61,10.0,South,15.0,20.7,N/A,,Clear,170,2013-04-15 21:53:00
5:53 PM,71.1,33.1,25,29.60,10.0,SE,17.3,21.9,N/A,,Clear,130,2013-04-15 22:53:00
6:53 PM,71.1,34.0,26,29.59,10.0,ESE,16.1,27.6,N/A,,Clear,110,2013-04-15 23:53:00
7:53 PM,64.0,36.0,35,29.61,10.0,East,20.7,29.9,N/A,,Clear,80,2013-04-16 00:53:00
8:53 PM,55.9,34.0,44,29.63,10.0,East,27.6,34.5,N/A,,Clear,90,2013-04-16 01:53:00
9:53 PM,53.1,34.0,48,29.69,10.0,East,24.2,31.1,N/A,,Clear,90,2013-04-16 02:53:00
10:53 PM,48.9,35.1,59,29.75,10.0,East,16.1,27.6,N/A,,Clear,80,2013-04-16 03:53:00
11:53 PM,45.0,28.9,53,29.79,10.0,East,13.8,-,N/A,,Clear,80,2013-04-16 04:53:00